Location: Praha
(50.0830°N, 14.4670°E)
Time: 03:53:25
(UTC+01:00)

ISS - Pass Details

Date: 19 January 2021
Orbit: 418 x 421 km, 51.6° (Epoch: 26 January)

Event Time Altitude Azimuth Distance (km) Brightness Sun altitude
Rises 19:26:54 0° 232° (SW) 2,363 0.8 -27.1°
Reaches altitude 10° 19:29:03 10° 226° (SW) 1,502 -0.4 -27.4°
Enters shadow 19:29:35 14° 223° (SW) 1,293 -0.8 -27.5°
